TimeEDT,TemperatureF,Dew PointF,Humidity,Sea Level PressureIn,VisibilityMPH,Wind Direction,Wind SpeedMPH,Gust SpeedMPH,PrecipitationIn,Events,Conditions,WindDirDegrees,DateUTC
12:15 AM,75.2,69.8,83,30.04,10.0,ENE,4.6,-,N/A,,Clear,60,2013-09-18 04:15:00
12:35 AM,75.2,69.8,83,30.03,10.0,ENE,3.5,-,N/A,,Clear,60,2013-09-18 04:35:00
12:55 AM,73.4,69.8,88,30.04,10.0,ENE,3.5,-,N/A,,Clear,60,2013-09-18 04:55:00
1:15 AM,73.4,69.8,88,30.04,10.0,NE,4.6,-,N/A,,Clear,50,2013-09-18 05:15:00
1:35 AM,73.4,69.8,88,30.03,10.0,ENE,5.8,-,N/A,,Clear,70,2013-09-18 05:35:00
1:55 AM,73.4,69.8,88,30.03,10.0,ENE,4.6,-,N/A,,Clear,60,2013-09-18 05:55:00
2:15 AM,73.4,69.8,88,30.02,10.0,NE,4.6,-,N/A,,Clear,40,2013-09-18 06:15:00
2:35 AM,73.4,69.8,88,30.02,10.0,Calm,Calm,-,N/A,,Clear,0,2013-09-18 06:35:00
2:55 AM,73.4,69.8,88,30.02,10.0,NE,3.5,-,N/A,,Clear,40,2013-09-18 06:55:00
3:15 AM,73.4,69.8,88,30.02,10.0,NE,3.5,-,N/A,,Clear,40,2013-09-18 07:15:00
3:35 AM,73.4,69.8,88,30.02,10.0,NE,3.5,-,N/A,,Clear,50,2013-09-18 07:35:00
3:55 AM,73.4,69.8,88,30.02,10.0,ENE,3.5,-,N/A,,Clear,60,2013-09-18 07:55:00
4:15 AM,73.4,71.6,94,30.01,10.0,NE,4.6,-,N/A,,Clear,50,2013-09-18 08:15:00
4:35 AM,73.4,69.8,88,30.01,10.0,Calm,Calm,-,N/A,,Clear,0,2013-09-18 08:35:00
4:55 AM,73.4,71.6,94,30.01,10.0,ENE,3.5,-,N/A,,Clear,60,2013-09-18 08:55:00
5:15 AM,71.6,69.8,94,30.01,10.0,Calm,Calm,-,N/A,,Clear,0,2013-09-18 09:15:00
5:35 AM,71.6,69.8,94,30.01,10.0,NNE,3.5,-,N/A,,Clear,30,2013-09-18 09:35:00
5:55 AM,71.6,69.8,94,30.02,10.0,NNE,3.5,-,N/A,,Clear,30,2013-09-18 09:55:00
6:15 AM,71.6,69.8,94,30.02,10.0,Calm,Calm,-,N/A,,Clear,0,2013-09-18 10:15:00
6:35 AM,71.6,69.8,94,30.02,10.0,Calm,Calm,-,N/A,,Clear,0,2013-09-18 10:35:00
6:55 AM,71.6,69.8,94,30.03,10.0,NE,3.5,-,N/A,,Clear,40,2013-09-18 10:55:00
7:15 AM,71.6,69.8,94,30.03,10.0,ENE,3.5,-,N/A,,Clear,60,2013-09-18 11:15:00
7:35 AM,71.6,69.8,94,30.04,7.0,ENE,3.5,-,N/A,,Clear,70,2013-09-18 11:35:00
7:55 AM,73.4,71.6,94,30.04,7.0,ENE,4.6,-,N/A,,Clear,70,2013-09-18 11:55:00
8:15 AM,73.4,71.6,94,30.05,10.0,ENE,6.9,-,N/A,,Clear,60,2013-09-18 12:15:00
8:35 AM,75.2,71.6,89,30.05,10.0,NE,6.9,-,N/A,,Scattered Clouds,50,2013-09-18 12:35:00
8:55 AM,77.0,71.6,83,30.05,10.0,ENE,9.2,-,N/A,,Scattered Clouds,70,2013-09-18 12:55:00
9:15 AM,78.8,71.6,78,30.04,10.0,ENE,9.2,-,N/A,,Clear,60,2013-09-18 13:15:00
9:35 AM,80.6,71.6,74,30.04,10.0,East,12.7,17.3,N/A,,Clear,80,2013-09-18 13:35:00
9:55 AM,80.6,71.6,74,30.05,10.0,East,10.4,18.4,N/A,,Scattered Clouds,80,2013-09-18 13:55:00
10:15 AM,82.4,71.6,70,30.05,10.0,ENE,8.1,-,N/A,,Mostly Cloudy,70,2013-09-18 14:15:00
10:35 AM,82.4,71.6,70,30.05,10.0,ENE,15.0,-,N/A,,Mostly Cloudy,60,2013-09-18 14:35:00
10:55 AM,82.4,71.6,70,30.06,10.0,East,11.5,17.3,N/A,,Mostly Cloudy,90,2013-09-18 14:55:00
11:15 AM,86.0,71.6,62,30.06,10.0,East,12.7,-,N/A,,Scattered Clouds,80,2013-09-18 15:15:00
11:35 AM,86.0,69.8,58,30.06,10.0,East,12.7,17.3,N/A,,Scattered Clouds,90,2013-09-18 15:35:00
11:55 AM,86.0,69.8,58,30.06,10.0,East,13.8,18.4,N/A,,Mostly Cloudy,80,2013-09-18 15:55:00
12:15 PM,86.0,69.8,58,30.05,10.0,ENE,12.7,18.4,N/A,,Mostly Cloudy,70,2013-09-18 16:15:00
12:35 PM,87.8,69.8,55,30.04,10.0,ENE,11.5,18.4,N/A,,Scattered Clouds,70,2013-09-18 16:35:00
12:55 PM,87.8,68.0,52,30.04,10.0,East,13.8,17.3,N/A,,Scattered Clouds,90,2013-09-18 16:55:00
1:15 PM,89.6,68.0,49,30.03,10.0,East,10.4,18.4,N/A,,Scattered Clouds,90,2013-09-18 17:15:00
1:35 PM,89.6,68.0,49,30.03,10.0,ENE,9.2,17.3,N/A,,Scattered Clouds,60,2013-09-18 17:35:00
1:55 PM,84.2,69.8,62,30.03,10.0,NE,10.4,-,N/A,,Overcast,40,2013-09-18 17:55:00
2:15 PM,82.4,69.8,66,30.03,10.0,ENE,12.7,17.3,N/A,,Mostly Cloudy,60,2013-09-18 18:15:00
2:35 PM,87.8,69.8,55,30.02,10.0,ENE,11.5,17.3,N/A,,Scattered Clouds,70,2013-09-18 18:35:00
2:55 PM,87.8,71.6,58,30.01,10.0,ENE,13.8,-,N/A,,Scattered Clouds,60,2013-09-18 18:55:00
3:15 PM,87.8,69.8,55,30.00,10.0,NE,11.5,21.9,N/A,,Scattered Clouds,40,2013-09-18 19:15:00
3:35 PM,87.8,69.8,55,29.99,10.0,NE,15.0,19.6,N/A,,Mostly Cloudy,50,2013-09-18 19:35:00
3:55 PM,82.4,68.0,62,30.01,10.0,East,17.3,29.9,N/A,,Mostly Cloudy,90,2013-09-18 19:55:00
4:15 PM,77.0,71.6,83,30.02,10.0,East,8.1,12.7,N/A,,Light Drizzle,80,2013-09-18 20:15:00
4:35 PM,78.8,71.6,78,30.01,10.0,NE,8.1,-,N/A,,Mostly Cloudy,40,2013-09-18 20:35:00
4:55 PM,80.6,71.6,74,30.01,10.0,ENE,8.1,-,N/A,,Scattered Clouds,60,2013-09-18 20:55:00
5:15 PM,78.8,71.6,78,30.01,10.0,ENE,8.1,-,N/A,,Scattered Clouds,70,2013-09-18 21:15:00
5:35 PM,82.4,71.6,70,30.01,10.0,ENE,9.2,-,N/A,,Clear,70,2013-09-18 21:35:00
5:55 PM,82.4,71.6,70,30.01,10.0,ENE,9.2,-,N/A,,Mostly Cloudy,60,2013-09-18 21:55:00
6:15 PM,82.4,71.6,70,30.00,10.0,ENE,8.1,-,N/A,,Scattered Clouds,70,2013-09-18 22:15:00
6:35 PM,82.4,69.8,66,30.01,10.0,ENE,6.9,-,N/A,,Mostly Cloudy,70,2013-09-18 22:35:00
6:55 PM,82.4,69.8,66,30.01,10.0,ENE,5.8,-,N/A,,Scattered Clouds,70,2013-09-18 22:55:00
7:15 PM,80.6,69.8,70,30.02,10.0,East,3.5,-,N/A,,Mostly Cloudy,100,2013-09-18 23:15:00
7:35 PM,80.6,69.8,70,30.03,10.0,East,3.5,-,N/A,,Mostly Cloudy,90,2013-09-18 23:35:00
7:55 PM,78.8,69.8,74,30.03,10.0,East,4.6,-,N/A,,Scattered Clouds,100,2013-09-18 23:55:00
8:15 PM,77.0,69.8,78,30.04,10.0,ENE,3.5,-,N/A,,Clear,70,2013-09-19 00:15:00
8:35 PM,77.0,69.8,78,30.04,10.0,NE,3.5,-,N/A,,Clear,50,2013-09-19 00:35:00
8:55 PM,77.0,69.8,78,30.04,10.0,ENE,6.9,-,N/A,,Clear,60,2013-09-19 00:55:00
9:15 PM,77.0,69.8,78,30.05,10.0,ENE,8.1,-,N/A,,Clear,60,2013-09-19 01:15:00
9:35 PM,77.0,69.8,78,30.06,10.0,NE,8.1,-,N/A,,Scattered Clouds,50,2013-09-19 01:35:00
9:55 PM,77.0,69.8,78,30.06,10.0,ENE,6.9,-,N/A,,Mostly Cloudy,60,2013-09-19 01:55:00
10:15 PM,75.2,69.8,83,30.07,10.0,ENE,10.4,-,N/A,,Scattered Clouds,60,2013-09-19 02:15:00
10:35 PM,75.2,69.8,83,30.07,10.0,ENE,6.9,-,N/A,,Scattered Clouds,60,2013-09-19 02:35:00
10:55 PM,73.4,69.8,88,30.07,10.0,ENE,6.9,-,N/A,,Mostly Cloudy,60,2013-09-19 02:55:00
11:15 PM,73.4,69.8,88,30.08,10.0,ENE,5.8,-,N/A,,Scattered Clouds,70,2013-09-19 03:15:00
11:35 PM,73.4,69.8,88,30.07,10.0,ENE,6.9,-,N/A,,Clear,70,2013-09-19 03:35:00
11:55 PM,73.4,69.8,88,30.07,10.0,ENE,5.8,-,N/A,,Clear,60,2013-09-19 03:55:00